Theta_e
310 310 310 310 310 310 310 312 312 310 310 312 317 317 316 314 314 309 307 306 305 301 297 297 297 295 295 298 296 294 294 293 294 293 294 295 293 293 291 291 289 289 288 287 287 286 284 294 292 291 295 296 297 296
309 309 309 310 310 310 310 311 311 309 310 310 312 316 316 315 313 311 303 305 304 303 297 298 298 298 298 297 298 295 297 295 298 296 295 295 293 292 292 289 291 288 292 292 291 292 293 296 295 296 297 297 296 296
309 309 309 309 309 309 309 311 311 309 311 311 313 314 315 314 313 310 304 303 303 300 297 298 297 300 301 299 299 298 298 298 297 298 298 297 293 295 290 290 291 292 293 292 291 294 293 295 297 296 296 297 297 296
308 309 308 309 309 310 309 310 311 310 310 310 311 313 315 313 312 310 304 305 304 303 299 296 299 297 300 300 298 299 298 298 299 301 299 299 297 295 294 292 292 294 292 292 292 294 293 295 296 297 296 296 295 295
307 308 308 308 309 309 309 309 310 311 310 312 313 313 314 312 312 309 305 304 303 301 298 294 296 297 299 299 298 299 300 300 300 298 298 298 295 295 293 293 292 294 294 292 291 295 296 295 297 297 295 294 295 294
307 306 307 307 308 309 309 309 311 311 311 311 311 313 313 311 307 306 301 305 304 305 298 294 295 295 296 298 298 297 298 297 299 299 296 295 294 296 292 291 296 296 296 297 296 295 294 294 296 297 295 295 295 295
307 307 307 307 307 308 308 309 310 310 310 311 308 313 310 310 307 300 299 300 304 304 298 291 292 294 294 296 296 298 297 296 298 296 295 295 295 295 293 290 295 295 296 295 295 295 293 294 294 296 295 295 296 296
307 307 307 307 307 308 308 309 310 310 310 310 309 311 310 305 303 300 303 301 300 299 298 290 289 292 294 294 294 294 296 297 293 294 294 294 292 293 287 294 294 294 294 295 295 294 295 296 296 295 296 295 294 294
306 306 306 307 307 308 308 309 309 310 309 309 310 306 302 301 298 300 301 299 299 298 294 293 290 289 293 291 293 293 294 292 292 293 293 292 292 287 293 294 294 294 293 294 294 293 294 295 295 295 295 294 293 293
306 305 306 307 307 308 308 309 309 309 307 309 303 296 293 298 302 301 297 295 296 295 294 290 292 289 293 291 290 292 292 290 289 289 290 288 289 294 294 294 295 295 295 294 291 290 292 293 293 294 294 294 293 293
305 306 306 306 307 307 308 308 308 307 307 298 292 291 298 303 297 293 290 292 291 290 291 290 291 288 291 290 290 290 289 288 286 287 287 288 287 290 290 293 294 295 296 295 295 296 296 296 294 294 293 293 293 294
305 306 306 306 307 307 307 307 306 304 300 297 298 299 297 293 291 289 288 287 287 288 287 288 289 292 290 293 290 288 286 285 284 287 286 284 290 289 290 291 292 294 295 294 294 294 295 294 294 293 294 294 293 293
305 306 306 306 306 307 307 305 306 305 301 298 295 290 290 287 283 283 278 283 283 287 287 288 287 290 289 291 288 288 285 285 286 284 284 288 289 289 290 290 290 293 293 294 294 294 294 294 294 294 293 293 293 293
305 305 306 306 306 306 305 306 305 302 297 291 287 282 285 283 284 286 287 286 289 289 287 289 287 290 289 288 287 286 283 285 281 280 283 290 289 290 290 291 291 291 293 293 294 294 294 292 292 292 293 293 293 293
305 305 305 305 306 306 305 305 304 300 296 289 289 285 284 288 286 287 288 288 288 291 288 288 289 290 286 283 285 282 279 280 282 284 289 290 290 290 290 291 292 292 292 291 292 292 292 292 292 293 294 294 293 293
304 304 303 305 305 305 306 304 301 296 291 288 286 284 284 286 285 286 288 287 291 290 289 292 286 286 284 285 281 282 283 282 287 288 290 289 289 290 290 291 291 291 292 292 292 292 292 292 292 293 293 293 293 292
304 300 304 305 305 305 303 297 292 286 286 285 286 286 288 288 288 288 289 289 292 289 287 288 286 286 284 282 282 284 284 289 289 288 289 290 289 290 291 290 290 291 291 292 292 291 291 292 292 292 292 293 292 293
299 303 305 304 303 299 293 290 286 285 284 285 285 285 287 288 288 288 289 291 291 287 288 288 285 282 283 283 283 286 287 287 288 289 289 289 290 291 291 291 291 291 292 291 291 291 291 291 292 293 292 292 292 292
301 303 303 300 297 289 285 285 287 283 284 285 286 288 288 288 290 291 291 289 289 290 288 287 287 287 286 287 288 287 288 288 287 288 288 290 291 290 291 291 291 291 291 291 292 292 293 292 293 293 293 293 293 293
304 304 304 300 298 289 285 284 289 286 283 285 287 286 287 288 289 290 287 288 288 289 288 287 288 288 289 289 290 290 290 289 289 287 287 288 290 290 290 291 291 291 291 291 291 290 292 293 293 293 293 293 292 290
300 299 300 294 290 290 288 285 286 287 286 285 287 287 286 288 287 287 287 289 289 289 288 289 289 288 289 289 290 290 289 291 291 291 290 289 290 291 290 290 291 291 291 292 292 291 292 292 292 292 292 292 291 291
297 297 287 292 285 285 286 289 287 288 287 286 287 287 285 285 285 287 289 289 289 290 290 289 289 288 287 287 289 290 291 292 292 292 292 291 289 289 289 290 290 291 291 292 291 292 291 291 292 291 290 290 289 289
295 292 286 285 284 285 283 289 285 287 283 283 286 284 284 285 287 289 287 289 290 291 291 290 289 290 289 289 290 289 291 292 291 291 291 291 291 291 291 291 291 291 291 290 292 291 290 290 289 289 289 288 288 288
294 286 284 284 284 281 285 283 286 284 284 283 282 280 281 284 286 286 285 287 289 290 290 289 289 287 287 288 289 289 290 292 291 290 291 290 290 289 291 291 291 292 293 292 291 290 290 289 289 289 288 287 287 286
284 282 283 280 284 281 281 281 282 283 281 282 281 280 281 284 282 282 283 285 287 289 289 290 290 290 288 289 290 290 290 292 291 290 290 291 290 288 289 290 291 291 292 290 289 289 289 289 288 288 287 286 286 285
278 281 281 281 281 281 281 279 280 282 282 280 281 282 283 282 281 281 283 286 287 289 290 290 290 289 289 291 289 289 290 291 291 290 290 290 291 291 290 289 288 288 291 292 290 289 288 288 287 286 286 286 286 286
277 278 282 284 284 283 282 283 286 283 280 279 280 280 282 281 281 284 286 288 288 291 293 293 293 292 291 289 290 291 291 291 291 291 291 291 291 293 293 291 290 292 291 290 290 289 288 287 287 287 287 286 286 286
281 282 279 281 282 284 282 283 282 282 281 283 282 280 281 282 283 286 287 287 287 290 291 292 293 293 291 290 289 288 288 288 288 288 289 289 289 290 290 291 292 291 291 291 291 290 290 289 288 288 287 286 286 287
281 284 283 279 282 283 283 283 283 284 285 284 282 282 282 283 284 284 284 285 287 288 287 287 286 288 288 288 289 289 289 289 289 287 287 287 287 288 289 291 291 291 290 290 289 290 290 290 289 288 287 287 287 288
282 285 282 281 280 279 281 283 282 284 285 285 285 284 284 283 283 285 285 286 287 287 288 287 286 287 286 287 286 286 289 291 292 291 288 287 289 290 289 289 289 288 289 290 289 289 290 289 289 287 286 286 286 286
284 284 281 280 278 281 283 284 285 285 284 284 285 284 283 283 284 285 284 284 286 287 286 285 286 288 288 288 288 287 287 288 287 288 289 289 289 289 289 288 288 288 288 288 287 286 287 286 286 285 284 283 284 285
283 282 280 278 279 283 285 283 283 283 283 284 282 284 283 284 282 283 282 284 286 286 288 288 287 287 290 291 291 291 291 290 288 288 288 288 288 289 288 287 287 288 287 287 286 287 286 285 284 284 283 283 283 284
283 283 282 282 282 281 282 283 282 281 281 281 281 282 282 282 281 282 281 281 285 286 287 286 288 289 288 289 289 288 288 289 289 289 289 289 288 288 287 287 287 287 287 286 286 286 285 284 283 283 283 283 283 283
Wind_Speed
22 21 21 21 22 21 21 20 17 13 16 15 16 13 10 9 9 11 3 4 3 2 2 1 1 3 3 5 5 8 7 4 3 5 3 3 3 3 3 2 3 6 6 4 3 4 6 9 6 6 4 4 6 6
23 22 22 21 22 21 22 21 17 15 12 18 19 14 12 11 9 16 5 2 1 1 3 2 3 2 3 4 2 6 3 5 5 3 2 3 3 3 2 3 3 4 3 2 8 4 3 11 1 2 3 5 6 6
23 23 22 22 22 22 21 21 18 17 15 18 13 21 14 11 9 16 4 5 2 3 2 4 3 2 2 5 4 3 2 3 4 3 3 2 3 3 5 5 4 6 5 4 3 5 9 7 7 5 5 4 6 5
23 24 23 22 21 21 21 21 20 19 18 17 19 19 14 12 9 16 5 4 3 2 4 4 1 2 6 5 2 2 4 5 5 1 2 2 2 4 1 3 4 2 9 6 6 7 2 8 11 8 7 7 8 7
23 22 22 22 22 21 21 21 21 19 17 17 18 20 16 12 10 8 4 5 3 4 3 4 3 4 7 2 5 5 7 5 2 3 2 2 3 3 2 1 5 7 6 6 5 2 2 3 7 11 11 10 8 7
23 23 22 23 22 21 21 21 20 19 16 17 17 14 17 13 15 4 5 6 8 3 4 4 2 2 5 7 9 9 5 4 2 1 3 2 2 2 3 3 6 10 7 5 1 3 2 2 6 11 9 10 8 7
24 23 23 23 23 22 21 20 19 19 17 16 14 17 16 19 8 6 2 3 8 4 3 5 3 2 2 1 3 3 4 3 2 2 2 2 3 3 3 5 6 8 9 7 5 8 4 7 5 10 9 8 7 5
24 24 24 23 24 24 22 22 21 18 17 16 11 18 17 14 6 5 2 6 2 4 1 6 3 4 1 3 3 3 2 1 4 2 2 2 3 2 6 15 5 5 7 8 9 3 2 9 8 10 7 8 6 6
25 25 26 24 25 24 23 22 21 18 17 16 16 22 6 3 4 2 8 5 1 2 4 3 8 6 3 3 2 2 2 2 1 2 2 2 3 9 8 7 10 11 9 9 11 5 5 10 9 10 9 8 7 6
25 25 25 25 25 23 22 22 21 15 14 21 13 4 6 5 15 14 2 4 2 2 2 4 3 5 3 2 3 3 1 2 3 3 2 4 7 11 9 5 2 10 7 12 13 7 7 8 9 10 9 6 5 6
25 25 24 25 23 21 23 21 15 14 20 3 3 3 4 12 3 1 4 6 4 3 3 4 3 8 3 3 5 1 3 2 4 4 4 3 6 4 2 9 6 7 9 9 3 4 8 5 8 7 6 6 5 5
25 25 26 24 21 21 23 17 19 14 4 7 9 7 4 3 2 6 6 4 6 8 6 7 5 4 5 2 4 3 3 2 3 3 3 5 4 3 4 6 8 8 9 8 5 5 6 6 5 4 2 3 3 4
26 26 26 23 21 22 20 14 24 25 19 4 3 5 4 3 6 13 13 5 6 8 9 8 7 5 5 2 5 3 4 3 3 4 5 6 3 5 6 5 7 8 7 7 7 5 5 4 3 4 2 1 4 5
26 25 23 21 22 21 15 16 35 23 7 3 6 9 9 8 8 5 10 9 5 7 13 9 7 4 4 4 3 5 3 3 3 5 8 3 8 9 7 6 9 9 8 9 8 6 5 5 4 2 1 2 4 5
25 22 20 21 23 19 20 24 24 9 4 5 5 7 10 1 3 2 6 9 5 12 11 8 7 4 4 6 3 6 4 6 7 7 3 4 10 11 10 9 9 9 8 8 7 6 5 4 1 2 1 2 4 4
21 17 14 19 19 21 24 33 12 3 2 3 3 4 3 5 4 5 5 8 9 11 5 4 6 5 4 7 6 8 9 9 5 4 4 8 12 12 11 10 9 8 7 7 6 4 3 2 2 4 4 4 3 3
23 6 20 24 16 25 38 11 4 3 5 5 4 2 3 3 8 6 8 7 12 11 5 5 7 4 7 4 6 6 8 3 5 6 6 11 13 13 12 10 8 8 7 6 5 3 1 1 2 3 5 4 3 2
4 10 25 20 20 22 4 4 3 4 4 3 5 5 3 2 8 6 4 10 9 3 5 4 8 7 8 10 6 6 5 4 4 6 9 11 12 11 9 10 9 7 5 4 2 1 2 1 3 3 3 3 2 2
10 14 32 30 15 7 4 2 1 4 3 3 4 4 3 5 3 6 7 5 4 4 7 3 4 5 5 4 4 8 9 7 7 8 9 11 11 9 9 8 6 5 4 3 2 2 0 2 2 1 1 1 2 3
22 27 35 37 11 4 4 2 1 4 5 4 4 5 4 4 4 8 7 3 4 4 2 3 3 3 4 4 4 8 9 10 12 11 9 6 6 7 8 7 4 4 4 3 3 2 2 2 1 1 0 0 3 4
24 25 35 10 3 2 3 4 4 3 5 5 6 4 5 5 5 6 4 1 1 2 3 2 2 3 3 5 6 9 11 11 10 9 10 7 6 5 5 4 5 4 3 3 3 2 3 1 3 2 1 2 3 4
6 22 5 3 3 3 4 1 5 5 4 6 4 5 6 5 5 4 3 1 2 2 3 4 5 6 7 7 10 11 13 12 11 9 10 11 6 6 6 5 5 4 3 3 3 4 4 4 3 2 2 3 3 4
17 5 4 2 4 4 4 1 4 2 7 6 4 6 3 3 3 4 3 2 1 3 4 4 6 7 10 12 13 13 11 13 9 7 7 5 6 5 6 6 4 5 4 4 3 4 5 5 4 3 3 3 4 5
10 5 4 4 3 5 4 2 3 5 5 5 5 7 4 4 3 2 4 4 2 6 6 10 9 9 8 11 10 10 8 7 8 7 6 7 6 5 4 4 4 3 3 6 5 5 5 4 3 2 3 4 5 6
6 3 5 5 3 6 6 5 4 3 6 4 5 5 5 4 3 5 4 4 7 8 8 9 8 8 9 9 8 8 7 7 7 7 6 5 6 6 4 4 4 4 5 7 6 6 5 4 3 2 3 4 6 7
4 2 3 7 6 6 7 7 6 6 8 5 4 5 4 4 5 6 5 8 7 9 10 11 11 9 8 9 10 8 8 6 5 5 6 7 8 7 8 8 7 5 5 5 7 7 6 5 4 2 1 3 6 6
5 5 2 2 4 7 8 5 7 6 6 6 7 7 5 5 6 5 3 4 5 7 10 9 10 10 10 8 5 6 7 7 4 3 5 7 5 4 6 8 8 5 9 8 7 6 6 5 4 2 1 3 4 4
3 5 9 6 5 2 7 6 6 5 5 5 7 6 12 10 6 2 1 3 5 8 9 8 7 7 9 8 8 9 9 8 9 9 8 7 4 2 3 3 4 15 8 7 6 5 4 4 3 3 2 3 4 4
3 5 5 6 6 5 3 4 4 3 6 8 5 5 4 3 2 2 2 4 6 9 10 10 6 8 8 8 7 7 10 10 13 12 10 7 5 4 4 6 8 7 7 7 8 6 5 3 4 4 2 3 3 4
4 2 5 5 4 3 2 1 3 2 3 3 4 4 4 3 3 3 4 5 6 7 8 9 9 9 11 11 10 8 5 4 3 7 8 8 7 8 9 9 8 8 8 8 7 7 7 5 6 4 3 3 3 3
3 3 6 5 5 3 5 6 3 4 4 4 5 6 5 5 3 4 3 2 5 8 10 10 8 9 11 10 10 10 8 5 4 4 5 5 8 10 10 9 8 8 8 8 7 5 5 4 4 4 5 4 3 4
3 3 6 6 4 2 4 5 5 6 6 5 5 4 3 4 4 2 3 1 5 7 9 10 10 9 6 6 5 4 4 8 9 7 9 7 7 9 10 9 9 8 9 8 7 6 6 6 5 4 4 3 1 3
6 11 11 6 4 4 2 4 4 4 5 4 4 3 4 3 4 2 1 3 1 3 6 5 5 7 8 7 7 5 6 6 12 14 12 12 15 14 9 8 8 9 10 8 7 7 8 7 6 4 3 3 1 2
Wind_Direction
253 252 253 256 257 258 261 257 243 244 274 296 246 221 211 227 210 197 256 200 260 248 123 335 6 165 147 200 161 136 147 175 170 213 215 171 219 160 216 110 187 185 168 179 163 214 261 145 138 219 70 123 164 173
250 250 250 252 253 253 256 252 244 238 245 262 270 248 205 218 211 193 249 174 217 305 67 48 66 33 335 345 116 175 1 145 159 157 180 119 162 169 197 219 194 227 254 202 212 220 106 193 9 88 164 160 178 177
245 244 247 249 248 250 254 254 235 231 233 237 269 246 204 209 204 190 237 163 161 145 134 199 157 85 33 2 325 190 188 135 168 17 137 113 195 172 190 217 192 212 184 237 231 175 223 220 213 225 192 195 156 139
243 241 242 243 244 246 251 249 237 227 231 231 233 251 203 199 198 188 224 183 244 146 203 129 24 57 334 326 228 329 101 104 101 172 127 146 186 213 217 20 249 40 160 210 251 253 236 232 226 203 172 151 146 148
238 238 239 241 241 242 246 249 246 232 226 230 224 234 203 189 182 188 255 223 273 279 142 122 131 29 3 32 105 126 134 124 148 155 163 146 94 173 82 234 238 187 193 203 260 143 267 135 191 175 169 167 164 163
235 235 237 240 240 239 240 241 242 234 230 222 221 246 190 168 142 160 229 192 192 226 129 137 47 51 37 66 80 74 62 69 72 110 98 102 72 253 202 245 257 209 224 247 225 144 123 24 165 172 171 169 169 188
233 236 235 236 239 237 238 239 240 231 218 214 214 213 171 156 166 208 258 20 167 166 151 109 146 84 339 24 61 62 51 68 17 101 122 154 158 233 218 230 222 207 207 187 165 144 162 178 173 174 170 168 181 205
228 232 234 233 235 234 232 234 230 219 208 203 206 191 146 120 97 266 149 129 139 121 70 129 107 170 319 114 116 356 95 123 37 95 155 189 148 215 247 235 207 179 177 185 186 189 18 144 154 163 165 174 199 226
226 229 232 230 227 229 226 227 222 211 201 189 148 123 119 173 192 155 121 116 69 282 157 148 148 162 159 92 85 120 326 133 39 202 165 232 185 225 233 222 203 180 181 177 160 144 146 174 161 172 182 196 225 252
223 226 228 225 225 224 225 221 210 202 178 141 150 169 169 182 120 132 148 169 220 358 49 97 137 125 175 144 108 145 12 117 190 107 153 225 253 264 256 227 204 179 162 148 153 165 171 167 179 185 201 209 237 264
221 219 219 220 221 220 215 212 191 170 179 120 165 99 79 138 123 174 162 181 158 190 161 123 145 130 184 145 123 300 143 148 209 119 245 234 257 232 171 202 159 167 171 177 145 190 186 182 182 194 202 218 242 272
214 214 214 216 216 211 208 212 187 173 140 172 117 120 124 158 144 171 183 145 200 181 151 143 128 107 129 165 120 153 124 177 189 130 233 252 242 161 154 158 170 162 163 169 178 151 162 177 166 166 209 266 276 295
211 210 211 211 207 207 193 188 188 156 143 94 73 101 156 162 202 187 178 172 151 168 166 160 132 121 138 125 87 133 140 137 135 205 238 243 111 164 152 138 140 162 174 179 180 174 176 166 179 205 188 274 298 305
205 207 207 204 201 195 157 169 152 146 105 123 155 151 203 183 230 178 164 148 141 140 143 131 112 115 117 109 128 120 80 166 196 233 233 191 181 159 153 145 140 144 148 154 159 166 157 156 147 143 249 286 302 314
201 203 201 201 195 195 170 160 165 139 121 148 164 202 195 127 63 121 111 111 123 145 138 117 91 110 108 113 113 113 141 216 222 230 207 154 158 152 151 152 145 145 142 138 135 138 141 143 148 267 264 307 326 334
193 194 199 195 174 182 190 152 166 101 47 136 181 146 138 145 126 160 151 126 144 147 116 88 117 119 127 137 152 200 171 212 209 199 153 150 153 150 147 149 144 136 135 132 131 139 140 165 268 297 306 314 337 336
178 199 173 167 142 150 146 125 84 109 165 165 189 198 187 130 167 162 156 157 152 156 138 137 128 142 118 155 187 189 207 194 153 149 148 156 150 148 147 140 138 139 143 136 139 140 166 230 253 269 298 340 336 278
175 154 155 155 154 131 34 54 107 130 147 152 162 157 170 99 129 140 129 151 153 132 151 131 131 168 168 169 190 195 181 133 126 140 148 147 142 144 151 144 144 148 142 146 152 161 227 218 272 299 304 322 295 270
144 142 135 139 136 103 107 121 182 109 93 127 114 104 90 96 72 113 131 122 74 104 119 130 129 170 180 200 159 153 156 156 149 145 142 146 142 141 145 139 138 144 155 154 173 195 101 288 285 297 312 249 281 313
138 159 165 153 134 86 104 93 82 99 151 153 122 93 78 89 120 127 118 114 127 156 124 145 187 181 160 158 145 147 144 143 140 134 142 150 157 152 161 163 161 147 147 158 193 224 209 196 134 34 109 339 311 326
137 152 144 113 81 132 113 137 127 141 130 102 121 89 83 89 120 150 131 172 159 142 140 178 151 117 94 112 125 129 136 148 148 145 144 151 163 160 155 158 148 154 165 181 198 164 184 142 91 95 36 341 343 336
111 119 76 86 130 112 96 103 124 134 97 129 113 100 114 129 137 161 125 175 204 146 172 161 156 144 133 131 133 133 135 131 121 115 104 121 145 157 165 160 159 169 178 185 187 171 138 112 104 81 22 8 352 349
106 91 73 111 107 89 99 247 114 116 126 157 127 104 104 129 136 135 174 201 180 185 152 137 132 127 123 127 124 121 129 128 128 132 139 139 135 142 145 156 164 160 167 170 163 145 129 127 125 101 56 19 2 356
89 93 138 124 99 102 132 104 93 105 107 152 110 110 135 124 156 194 183 202 184 160 155 141 137 121 110 133 151 152 153 148 134 131 144 145 152 162 165 153 155 171 165 144 148 138 143 150 151 89 48 17 10 351
102 120 117 103 130 130 121 128 112 120 121 124 100 123 138 151 138 187 203 183 169 175 156 153 157 157 149 153 156 163 160 162 153 151 161 162 131 124 124 122 142 150 150 149 155 158 155 152 149 88 55 12 360 347
97 165 167 156 161 134 155 125 141 146 109 102 109 124 168 153 177 207 205 171 171 176 168 169 163 154 162 166 161 165 175 167 149 157 159 173 173 162 161 165 168 170 184 174 158 157 158 165 158 138 66 12 357 342
141 173 174 286 113 109 93 73 121 107 119 142 154 160 152 170 218 217 164 178 155 177 174 169 169 169 160 154 137 138 143 154 151 136 128 159 166 170 174 171 180 153 160 168 160 159 160 162 172 178 129 4 353 338
144 172 143 141 97 85 115 111 134 143 152 154 142 164 169 187 196 151 154 121 116 131 135 139 146 147 138 141 136 128 120 115 106 105 98 82 69 97 117 110 116 142 145 152 145 140 150 160 175 151 94 11 338 337
97 119 114 99 89 72 88 137 155 150 140 163 143 151 150 54 35 31 82 109 124 128 132 139 122 113 104 104 117 134 140 148 146 147 149 149 161 162 150 138 138 141 138 134 131 129 151 164 137 139 103 43 350 331
135 264 107 68 69 87 92 35 110 107 50 87 109 104 80 52 22 14 106 135 137 143 130 118 126 136 142 142 141 146 168 176 179 157 162 177 179 150 157 152 147 141 138 134 131 126 120 130 124 138 109 71 359 340
132 91 75 61 78 43 87 109 97 75 60 51 30 82 98 124 86 40 40 41 111 118 120 126 128 143 144 147 154 153 169 198 170 131 115 121 136 151 154 152 147 144 143 142 142 150 149 153 148 135 102 74 5 342
53 97 128 101 92 29 37 45 38 41 22 45 33 44 87 79 72 46 15 52 137 139 148 144 144 156 153 139 132 120 122 153 165 161 143 137 140 149 146 146 146 144 144 142 141 146 152 147 134 144 121 96 21 336
90 89 89 95 92 87 47 89 73 73 44 55 47 13 36 62 112 102 47 3 24 123 135 110 103 130 139 138 135 115 109 126 145 148 144 144 148 148 144 144 145 147 143 139 142 151 152 151 145 142 123 103 72 346